Showing default

DSX, 44344

Orbit data source: Space-Track

DSX, 44344 is a payload satellite owned by AFRL/RV (US) that was launched on Tue, 25 Jun 2019 UTC via an FALCON HEAVY launch vehicle from the Air Force Eastern Test Range (AFETR). Payload-class satellites include a variety of spacecraft equipped with specific instruments for various scientific and technological missions. These include communications satellites like Starlink; space stations such as the ISS; scientific satellites like the Hubble; Earth observation satellites from companies like Planet Labs, Umbra, and HawkEye 360; GPS; miniature CubeSats for education and research; and military/defense satellites.

Loading next visibility...
Identifier
44344, 2019-036F
Orbit
Active
Country
Flag of USUS
Related business
Manufacturer
MicrosatSystems
Mission
Operational Defense Technology
Bus & Motor
ESPA, Unknown motor
Mass
668 kg wet, 668 kg dry
Launch date (UTC)
2019-06-25 (6 years ago)
Launch vehicle
FALCON HEAVY
Launch site
Air Force Eastern Test Range (AFETR)
Object type
Payload
Rocket body
Debris
Shape & HBR
Irr + 1 Ant, 27.0 m
Radar Cross Section
11.357 m², Large (>1 m²)

Expand to show TLE details & history
Last TLE update: 10 hours ago

TLE from 10 hours ago
0 DSX
1 44344U 19036F   25343.29935847 -.00000033  00000-0  00000+0 0  9998
2 44344  42.2774  60.0955 1967909 294.3378  46.4499  4.54374597107168
Epoch: 2025-12-09T07:11Z
TLE epoch observation values (Epoch: 2025-12-09T07:11:04.571Z)
Latitude
0.00005°
Longitude
-125.95576°
Altitude
7,316.782 km
Speed
5.686 km/s
True Right ascension
04h 00m 23s
True Declination
0° 00' 00"
Sunlit
Object was in partial shadow at epoch
Visualization orbit readout
Latitude
Unknown
Longitude
Unknown
Altitude
Unknown
Speed
Unknown
Apparent Right ascension
Unknown
Apparent Declination
Unknown
Sunlit
N/A
Visualization observer readout
Local Sidereal Time
15:20:51
Azimuth
Unknown
Elevation
Unknown
Doppler factor
Unknown
Orbital elements
Apogee altitude
12,051.008 km
Perigee altitude
5,990.32 km
Semi-major axis
15,398.801 km
Eccentricity
0.19679
Inclination
42.2774°
RAAN
60.0955°
Arg. of periapsis
294.3378°
True anomaly
65.71928°
Mean anomaly
46.4499°
Eccentric anomaly
55.77242°
Mean motion
1.13583 °/min
Orbital period
316.95 mins
BSTAR
0
Loading maneuver chart data...
Computing Atmospheric mass density...
Loading historical data...
Loading historical data...
Loading historical data...
Loading historical data...
Loading historical data...
Loading historical data...
Loading historical data...

Documentation

Showing up to 5 results
|